Time,TemperatureF,DewpointF,PressureIn,WindDirection,WindDirectionDegrees,WindSpeedMPH,WindSpeedGustMPH,Humidity,HourlyPrecipIn,Conditions,Clouds,dailyrainin,SoftwareType,DateUTC
2013-02-23 00:00:00,31.8,28.9,30.23,SE,124,4.0,7.0,89,0.00,,OVC014,0.00,VWS V14.01,2013-02-23 05:00:00,
2013-02-23 00:01:00,31.8,28.9,30.23,SE,124,4.0,4.0,89,0.00,,OVC014,0.00,VWS V14.01,2013-02-23 05:01:00,
2013-02-23 00:06:00,31.8,28.9,30.23,SE,129,3.0,5.0,89,0.00,,OVC014,0.00,VWS V14.01,2013-02-23 05:06:00,
2013-02-23 00:11:00,31.8,28.9,30.23,SE,132,3.0,4.0,89,0.00,,OVC014,0.00,VWS V14.01,2013-02-23 05:11:00,
2013-02-23 00:16:00,31.8,29.2,30.23,SE,125,2.0,4.0,90,0.00,,OVC014,0.00,VWS V14.01,2013-02-23 05:16:00,
2013-02-23 00:21:00,31.7,29.1,30.22,SSE,162,6.0,6.0,90,0.00,,OVC014,0.00,VWS V14.01,2013-02-23 05:21:00,
2013-02-23 00:26:00,31.6,29.3,30.22,SE,129,5.0,6.0,91,0.00,,OVC014,0.00,VWS V14.01,2013-02-23 05:26:00,
2013-02-23 00:32:00,31.5,29.5,30.22,SE,143,3.0,6.0,92,0.00,,OVC014,0.00,VWS V14.01,2013-02-23 05:32:00,
2013-02-23 00:37:00,31.4,29.6,30.22,ESE,117,1.0,3.0,93,0.00,,OVC014,0.00,VWS V14.01,2013-02-23 05:37:00,
2013-02-23 00:42:00,31.3,29.5,30.22,ESE,115,3.0,5.0,93,0.00,,OVC014,0.00,VWS V14.01,2013-02-23 05:42:00,
2013-02-23 00:47:00,31.2,29.7,30.21,SE,127,2.0,4.0,94,0.00,,OVC014,0.00,VWS V14.01,2013-02-23 05:47:00,
2013-02-23 00:52:00,31.1,29.6,30.21,ESE,108,3.0,3.0,94,0.00,,OVC014,0.00,VWS V14.01,2013-02-23 05:52:00,
2013-02-23 00:57:00,31.1,29.8,30.21,ESE,114,2.0,4.0,95,0.00,,OVC014,0.00,VWS V14.01,2013-02-23 05:57:00,
2013-02-23 01:02:00,31.1,29.8,30.21,SE,128,5.0,6.0,95,0.00,,,0.00,VWS V14.01,2013-02-23 06:02:00,
2013-02-23 01:07:00,31.1,29.8,30.20,ESE,120,4.0,5.0,95,0.00,,,0.00,VWS V14.01,2013-02-23 06:07:00,
2013-02-23 01:12:00,31.1,29.8,30.20,ESE,105,3.0,5.0,95,0.00,,,0.00,VWS V14.01,2013-02-23 06:12:00,
2013-02-23 01:17:00,31.1,29.8,30.20,SE,126,3.0,7.0,95,0.00,,,0.00,VWS V14.01,2013-02-23 06:17:00,
2013-02-23 01:22:00,31.1,30.1,30.20,ESE,120,2.0,4.0,96,0.00,,,0.00,VWS V14.01,2013-02-23 06:22:00,
2013-02-23 01:28:00,31.1,30.1,30.20,ESE,110,2.0,3.0,96,0.00,,,0.00,VWS V14.01,2013-02-23 06:28:00,
2013-02-23 01:33:00,31.1,30.1,30.19,SE,129,3.0,5.0,96,0.00,,,0.00,VWS V14.01,2013-02-23 06:33:00,
2013-02-23 01:38:00,31.1,30.1,30.19,SE,124,1.0,3.0,96,0.00,,,0.00,VWS V14.01,2013-02-23 06:38:00,
2013-02-23 01:43:00,31.1,30.1,30.18,ENE,72,0.0,2.0,96,0.00,,,0.00,VWS V14.01,2013-02-23 06:43:00,
2013-02-23 01:48:00,31.2,30.2,30.18,ESE,103,1.0,5.0,96,0.00,,,0.00,VWS V14.01,2013-02-23 06:48:00,
2013-02-23 01:53:00,31.2,30.2,30.18,ESE,108,0.0,3.0,96,0.00,,,0.00,VWS V14.01,2013-02-23 06:53:00,
2013-02-23 01:58:00,31.2,30.2,30.18,ESE,107,2.0,4.0,96,0.00,,,0.00,VWS V14.01,2013-02-23 06:58:00,
2013-02-23 02:03:00,31.2,30.5,30.18,ESE,105,4.0,6.0,97,0.00,,,0.00,VWS V14.01,2013-02-23 07:03:00,
2013-02-23 02:08:00,31.2,30.5,30.18,ESE,115,3.0,4.0,97,0.00,,,0.00,VWS V14.01,2013-02-23 07:08:00,
2013-02-23 02:13:00,31.2,30.5,30.18,East,94,3.0,4.0,97,0.00,,,0.00,VWS V14.01,2013-02-23 07:13:00,
2013-02-23 02:18:00,31.3,30.5,30.18,ESE,121,2.0,4.0,97,0.00,,,0.00,VWS V14.01,2013-02-23 07:18:00,
2013-02-23 02:23:00,31.3,30.5,30.18,ESE,111,3.0,3.0,97,0.00,,,0.00,VWS V14.01,2013-02-23 07:23:00,
2013-02-23 02:28:00,31.3,30.5,30.18,ESE,113,1.0,3.0,97,0.00,,,0.00,VWS V14.01,2013-02-23 07:28:00,
2013-02-23 02:33:00,31.4,30.6,30.17,ESE,115,3.0,4.0,97,0.00,,,0.00,VWS V14.01,2013-02-23 07:33:00,
2013-02-23 02:38:00,31.5,30.8,30.18,ESE,108,0.0,1.0,97,0.00,,,0.00,VWS V14.01,2013-02-23 07:38:00,
2013-02-23 02:44:00,31.5,30.8,30.17,ESE,105,0.0,1.0,97,0.00,,,0.00,VWS V14.01,2013-02-23 07:44:00,
2013-02-23 02:49:00,31.6,30.9,30.17,East,101,0.0,1.0,97,0.00,,,0.00,VWS V14.01,2013-02-23 07:49:00,
2013-02-23 02:54:00,31.5,30.8,30.16,East,99,0.0,1.0,97,0.00,,,0.00,VWS V14.01,2013-02-23 07:54:00,
2013-02-23 02:59:00,31.6,31.1,30.16,East,101,0.0,1.0,98,0.00,,,0.00,VWS V14.01,2013-02-23 07:59:00,
2013-02-23 03:04:00,31.6,31.1,30.16,East,99,0.0,1.0,98,0.00,,,0.00,VWS V14.01,2013-02-23 08:04:00,
2013-02-23 03:09:00,31.6,31.1,30.16,East,94,0.0,1.0,98,0.00,,,0.00,VWS V14.01,2013-02-23 08:09:00,
2013-02-23 03:14:00,31.6,31.1,30.16,ESE,111,1.0,1.0,98,0.00,,,0.00,VWS V14.01,2013-02-23 08:14:00,
2013-02-23 03:19:00,31.6,31.1,30.16,East,86,1.0,1.0,98,0.00,,,0.00,VWS V14.01,2013-02-23 08:19:00,
2013-02-23 03:24:00,31.7,31.2,30.15,East,82,0.0,1.0,98,0.01,,,0.01,VWS V14.01,2013-02-23 08:24:00,
2013-02-23 03:29:00,31.7,31.2,30.15,ENE,77,0.0,1.0,98,0.01,,,0.01,VWS V14.01,2013-02-23 08:29:00,
2013-02-23 03:35:00,31.7,31.2,30.14,East,86,0.0,1.0,98,0.01,,,0.01,VWS V14.01,2013-02-23 08:35:00,
2013-02-23 03:40:00,31.7,31.2,30.14,ENE,77,0.0,1.0,98,0.01,,,0.01,VWS V14.01,2013-02-23 08:40:00,
2013-02-23 03:45:00,31.8,31.3,30.14,ENE,62,0.0,0.0,98,0.01,,,0.01,VWS V14.01,2013-02-23 08:45:00,
2013-02-23 03:50:00,31.8,31.3,30.14,ENE,62,0.0,0.0,98,0.01,,,0.01,VWS V14.01,2013-02-23 08:50:00,
2013-02-23 03:55:00,31.8,31.3,30.14,East,82,0.0,0.0,98,0.01,,,0.01,VWS V14.01,2013-02-23 08:55:00,
2013-02-23 04:00:00,31.8,31.3,30.14,East,82,0.0,0.0,98,0.01,,,0.01,VWS V14.01,2013-02-23 09:00:00,
2013-02-23 04:05:00,31.8,31.3,30.13,ENE,74,0.0,0.0,98,0.01,,,0.01,VWS V14.01,2013-02-23 09:05:00,
2013-02-23 04:10:00,31.8,31.3,30.12,ENE,72,1.0,1.0,98,0.02,,,0.02,VWS V14.01,2013-02-23 09:10:00,
2013-02-23 04:15:00,31.8,31.3,30.13,East,98,0.0,0.0,98,0.02,,,0.02,VWS V14.01,2013-02-23 09:15:00,
2013-02-23 04:20:00,31.9,31.4,30.13,East,98,0.0,1.0,98,0.02,,,0.02,VWS V14.01,2013-02-23 09:20:00,
2013-02-23 04:25:00,31.9,31.4,30.12,ESE,104,0.0,1.0,98,0.01,,,0.02,VWS V14.01,2013-02-23 09:25:00,
2013-02-23 04:31:00,32.0,31.5,30.12,ENE,76,0.0,1.0,98,0.01,,,0.02,VWS V14.01,2013-02-23 09:31:00,
2013-02-23 04:36:00,32.1,31.6,30.12,East,84,0.0,0.0,98,0.01,,,0.02,VWS V14.01,2013-02-23 09:36:00,
2013-02-23 04:41:00,31.8,31.3,30.12,East,84,0.0,0.0,98,0.01,,,0.02,VWS V14.01,2013-02-23 09:41:00,
2013-02-23 04:46:00,31.5,31.5,30.12,East,84,0.0,0.0,100,0.01,,,0.02,VWS V14.01,2013-02-23 09:46:00,
2013-02-23 04:51:00,31.5,31.5,30.11,East,84,0.0,0.0,100,0.01,,,0.02,VWS V14.01,2013-02-23 09:51:00,
2013-02-23 04:56:00,31.5,31.5,30.11,East,84,0.0,0.0,100,0.01,,,0.02,VWS V14.01,2013-02-23 09:56:00,
2013-02-23 05:01:00,31.5,31.5,30.11,East,84,0.0,0.0,100,0.01,,,0.02,VWS V14.01,2013-02-23 10:01:00,
2013-02-23 05:06:00,31.5,31.5,30.11,East,84,0.0,0.0,100,0.01,,,0.02,VWS V14.01,2013-02-23 10:06:00,
2013-02-23 05:11:00,31.5,31.5,30.11,East,84,0.0,0.0,100,0.00,,,0.02,VWS V14.01,2013-02-23 10:11:00,
2013-02-23 05:16:00,31.5,31.5,30.11,East,84,0.0,0.0,100,0.00,,,0.02,VWS V14.01,2013-02-23 10:16:00,
2013-02-23 05:21:00,31.5,31.5,30.11,East,84,0.0,0.0,100,0.00,,,0.02,VWS V14.01,2013-02-23 10:21:00,
2013-02-23 05:26:00,31.5,31.5,30.11,East,84,0.0,0.0,100,0.00,,,0.02,VWS V14.01,2013-02-23 10:26:00,
2013-02-23 05:31:00,31.5,31.5,30.11,East,84,0.0,0.0,100,0.00,,,0.02,VWS V14.01,2013-02-23 10:31:00,
2013-02-23 05:36:00,31.5,31.5,30.10,East,84,0.0,0.0,100,0.00,,,0.02,VWS V14.01,2013-02-23 10:36:00,
2013-02-23 05:42:00,31.5,31.5,30.10,East,84,0.0,0.0,100,0.00,,,0.02,VWS V14.01,2013-02-23 10:42:00,
2013-02-23 05:47:00,31.5,31.5,30.10,East,84,0.0,0.0,100,0.00,,,0.02,VWS V14.01,2013-02-23 10:47:00,
2013-02-23 05:52:00,31.5,31.5,30.09,East,84,0.0,0.0,100,0.00,,,0.02,VWS V14.01,2013-02-23 10:52:00,
2013-02-23 05:57:00,31.5,31.5,30.09,East,84,0.0,0.0,100,0.00,,,0.02,VWS V14.01,2013-02-23 10:57:00,
2013-02-23 06:02:00,31.5,31.5,30.10,East,84,0.0,0.0,100,0.00,,,0.02,VWS V14.01,2013-02-23 11:02:00,
2013-02-23 06:07:00,31.5,31.5,30.09,East,84,0.0,0.0,100,0.00,,,0.02,VWS V14.01,2013-02-23 11:07:00,
2013-02-23 06:12:00,31.5,31.5,30.09,East,84,0.0,0.0,100,0.00,,,0.02,VWS V14.01,2013-02-23 11:12:00,
2013-02-23 06:17:00,31.5,31.5,30.09,East,84,0.0,0.0,100,0.00,,,0.02,VWS V14.01,2013-02-23 11:17:00,
2013-02-23 06:23:00,31.5,31.5,30.09,East,84,0.0,0.0,100,0.00,,,0.02,VWS V14.01,2013-02-23 11:23:00,
2013-02-23 06:28:00,31.5,31.5,30.09,East,84,0.0,0.0,100,0.00,,,0.02,VWS V14.01,2013-02-23 11:28:00,
2013-02-23 06:33:00,31.5,31.5,30.09,East,84,0.0,0.0,100,0.00,,,0.02,VWS V14.01,2013-02-23 11:33:00,
2013-02-23 06:38:00,31.5,31.5,30.08,East,84,0.0,0.0,100,0.00,,,0.02,VWS V14.01,2013-02-23 11:38:00,
2013-02-23 06:43:00,31.5,31.5,30.08,East,84,0.0,0.0,100,0.00,,,0.02,VWS V14.01,2013-02-23 11:43:00,
2013-02-23 06:48:00,31.5,31.5,30.09,East,84,0.0,0.0,100,0.00,,,0.02,VWS V14.01,2013-02-23 11:48:00,
2013-02-23 06:53:00,31.5,31.5,30.09,East,84,0.0,0.0,100,0.00,,,0.02,VWS V14.01,2013-02-23 11:53:00,
2013-02-23 06:58:00,31.5,31.5,30.09,East,84,0.0,0.0,100,0.00,,,0.02,VWS V14.01,2013-02-23 11:58:00,
2013-02-23 07:03:00,31.5,31.5,30.09,East,84,0.0,0.0,100,0.00,,,0.02,VWS V14.01,2013-02-23 12:03:00,
2013-02-23 07:08:00,31.5,31.5,30.09,East,84,0.0,0.0,100,0.00,,,0.02,VWS V14.01,2013-02-23 12:08:00,
2013-02-23 07:13:00,31.5,31.5,30.09,East,84,0.0,0.0,100,0.00,,,0.02,VWS V14.01,2013-02-23 12:13:00,
2013-02-23 07:18:00,31.5,31.5,30.09,East,84,0.0,0.0,100,0.00,,,0.02,VWS V14.01,2013-02-23 12:18:00,
2013-02-23 07:23:00,31.5,31.5,30.08,East,84,0.0,0.0,100,0.00,,,0.02,VWS V14.01,2013-02-23 12:23:00,
2013-02-23 07:28:00,31.5,31.5,30.09,East,84,0.0,0.0,100,0.00,,,0.02,VWS V14.01,2013-02-23 12:28:00,
2013-02-23 07:33:00,31.5,31.5,30.08,East,84,0.0,0.0,100,0.00,,,0.02,VWS V14.01,2013-02-23 12:33:00,
2013-02-23 07:38:00,31.5,31.5,30.08,East,84,0.0,0.0,100,0.00,,,0.02,VWS V14.01,2013-02-23 12:38:00,
2013-02-23 07:43:00,32.2,32.2,30.08,NNW,335,0.0,0.0,100,0.00,,,0.02,VWS V14.01,2013-02-23 12:43:00,
2013-02-23 07:49:00,32.3,32.0,30.08,NNW,344,0.0,0.0,99,0.00,,,0.02,VWS V14.01,2013-02-23 12:49:00,
2013-02-23 07:54:00,32.3,32.0,30.08,NNW,343,0.0,0.0,99,0.00,,,0.02,VWS V14.01,2013-02-23 12:54:00,
2013-02-23 07:59:00,32.4,32.2,30.08,NNW,342,0.0,1.0,99,0.00,,,0.02,VWS V14.01,2013-02-23 12:59:00,
2013-02-23 08:04:00,32.4,32.2,30.08,NNW,342,0.0,0.0,99,0.00,,,0.02,VWS V14.01,2013-02-23 13:04:00,
2013-02-23 08:09:00,32.5,32.2,30.08,NNW,342,0.0,1.0,99,0.01,,,0.03,VWS V14.01,2013-02-23 13:09:00,
2013-02-23 08:14:00,32.5,32.2,30.08,NNW,344,0.0,0.0,99,0.01,,,0.03,VWS V14.01,2013-02-23 13:14:00,
2013-02-23 08:19:00,32.5,32.2,30.08,NNW,345,0.0,1.0,99,0.01,,,0.03,VWS V14.01,2013-02-23 13:19:00,
2013-02-23 08:24:00,32.6,32.3,30.08,NNW,345,0.0,0.0,99,0.01,,,0.03,VWS V14.01,2013-02-23 13:24:00,
2013-02-23 08:29:00,32.5,32.2,30.07,ESE,115,0.0,1.0,99,0.01,,,0.03,VWS V14.01,2013-02-23 13:29:00,
2013-02-23 08:34:00,32.5,32.2,30.07,North,355,0.0,1.0,99,0.02,,,0.04,VWS V14.01,2013-02-23 13:34:00,
2013-02-23 08:39:00,32.5,32.2,30.06,NW,314,0.0,1.0,99,0.02,,,0.04,VWS V14.01,2013-02-23 13:39:00,
2013-02-23 08:44:00,32.5,32.2,30.06,ENE,72,0.0,1.0,99,0.02,,,0.04,VWS V14.01,2013-02-23 13:44:00,
2013-02-23 08:49:00,32.5,32.2,30.06,ENE,78,1.0,2.0,99,0.02,,,0.04,VWS V14.01,2013-02-23 13:49:00,
2013-02-23 08:54:00,32.6,32.3,30.06,East,84,1.0,1.0,99,0.02,,,0.04,VWS V14.01,2013-02-23 13:54:00,
2013-02-23 08:59:00,32.7,32.5,30.05,East,92,1.0,1.0,99,0.02,,,0.04,VWS V14.01,2013-02-23 13:59:00,
2013-02-23 09:04:00,32.8,32.5,30.05,East,92,0.0,1.0,99,0.02,,,0.04,VWS V14.01,2013-02-23 14:04:00,
2013-02-23 09:09:00,33.0,32.8,30.05,East,92,0.0,0.0,99,0.03,,,0.05,VWS V14.01,2013-02-23 14:09:00,
2013-02-23 09:14:00,33.2,33.0,30.05,East,92,0.0,0.0,99,0.02,,,0.05,VWS V14.01,2013-02-23 14:14:00,
2013-02-23 09:19:00,33.3,33.0,30.04,East,91,0.0,0.0,99,0.02,,,0.05,VWS V14.01,2013-02-23 14:19:00,
2013-02-23 09:24:00,33.5,33.2,30.04,East,92,0.0,1.0,99,0.02,,,0.05,VWS V14.01,2013-02-23 14:24:00,
2013-02-23 09:30:00,33.4,33.2,30.04,NNW,331,0.0,1.0,99,0.02,,,0.05,VWS V14.01,2013-02-23 14:30:00,
2013-02-23 09:35:00,33.4,33.2,30.03,NNW,332,0.0,0.0,99,0.02,,,0.05,VWS V14.01,2013-02-23 14:35:00,
2013-02-23 09:40:00,33.6,33.3,30.03,NNW,332,0.0,0.0,99,0.01,,,0.05,VWS V14.01,2013-02-23 14:40:00,
2013-02-23 09:45:00,33.7,33.5,30.03,NNW,332,0.0,0.0,99,0.01,,,0.05,VWS V14.01,2013-02-23 14:45:00,
2013-02-23 09:50:00,33.9,33.7,30.03,West,281,0.0,1.0,99,0.01,,,0.05,VWS V14.01,2013-02-23 14:50:00,
2013-02-23 09:55:00,34.2,34.0,30.03,West,281,0.0,0.0,99,0.01,,,0.05,VWS V14.01,2013-02-23 14:55:00,
2013-02-23 10:00:00,34.4,34.2,30.04,West,281,0.0,0.0,99,0.01,,,0.05,VWS V14.01,2013-02-23 15:00:00,
2013-02-23 10:05:00,34.4,34.2,30.03,West,281,0.0,1.0,99,0.01,,,0.05,VWS V14.01,2013-02-23 15:05:00,
2013-02-23 10:10:00,34.5,34.2,30.03,WNW,285,0.0,1.0,99,0.02,,,0.06,VWS V14.01,2013-02-23 15:10:00,
2013-02-23 10:15:00,34.6,34.3,30.03,WNW,285,0.0,0.0,99,0.01,,,0.06,VWS V14.01,2013-02-23 15:15:00,
2013-02-23 10:20:00,35.1,34.8,30.03,East,101,0.0,1.0,99,0.01,,,0.06,VWS V14.01,2013-02-23 15:20:00,
2013-02-23 10:25:00,35.6,35.6,30.03,East,88,0.0,4.0,100,0.01,,,0.06,VWS V14.01,2013-02-23 15:25:00,
2013-02-23 10:30:00,35.9,35.9,30.03,SE,145,0.0,4.0,100,0.01,,,0.06,VWS V14.01,2013-02-23 15:30:00,
2013-02-23 10:35:00,36.1,36.1,30.03,ESE,122,0.0,3.0,100,0.01,,,0.06,VWS V14.01,2013-02-23 15:35:00,
2013-02-23 10:40:00,36.3,36.3,30.03,East,87,0.0,1.0,100,0.01,,,0.06,VWS V14.01,2013-02-23 15:40:00,
2013-02-23 10:45:00,36.4,36.4,30.02,ESE,105,1.0,5.0,100,0.01,,,0.06,VWS V14.01,2013-02-23 15:45:00,
2013-02-23 10:50:00,36.6,36.6,30.02,ESE,113,2.0,4.0,100,0.02,,,0.07,VWS V14.01,2013-02-23 15:50:00,
2013-02-23 10:55:00,37.0,37.0,30.01,ESE,115,1.0,3.0,100,0.02,,,0.07,VWS V14.01,2013-02-23 15:55:00,
2013-02-23 11:00:00,37.1,37.1,30.01,ESE,117,3.0,4.0,100,0.02,,,0.07,VWS V14.01,2013-02-23 16:00:00,
2013-02-23 11:05:00,37.1,36.8,30.01,SE,127,5.0,5.0,99,0.02,,-RA,0.07,VWS V14.01,2013-02-23 16:05:00,
2013-02-23 11:10:00,37.2,37.0,30.01,ESE,111,3.0,5.0,99,0.02,,-RA,0.07,VWS V14.01,2013-02-23 16:10:00,
2013-02-23 11:15:00,37.2,37.0,30.00,SE,134,2.0,3.0,99,0.01,,-RA,0.07,VWS V14.01,2013-02-23 16:15:00,
2013-02-23 11:20:00,37.4,37.2,30.00,SE,127,4.0,4.0,99,0.01,,-RA,0.07,VWS V14.01,2013-02-23 16:20:00,
2013-02-23 11:25:00,37.6,37.3,30.00,ESE,108,2.0,6.0,99,0.01,,-RA,0.07,VWS V14.01,2013-02-23 16:25:00,
2013-02-23 11:30:00,37.7,37.5,29.99,ESE,110,3.0,8.0,99,0.01,,-RA,0.07,VWS V14.01,2013-02-23 16:30:00,
2013-02-23 11:35:00,37.7,37.5,29.99,East,96,4.0,7.0,99,0.01,,-RA,0.07,VWS V14.01,2013-02-23 16:35:00,
2013-02-23 11:40:00,37.9,37.6,29.99,East,101,1.0,4.0,99,0.01,,-RA,0.07,VWS V14.01,2013-02-23 16:40:00,
2013-02-23 11:45:00,38.0,37.7,29.99,ESE,117,2.0,5.0,99,0.01,,-RA,0.07,VWS V14.01,2013-02-23 16:45:00,
2013-02-23 11:50:00,38.0,37.7,29.99,ESE,105,0.0,3.0,99,0.01,,-RA,0.07,VWS V14.01,2013-02-23 16:50:00,
2013-02-23 11:55:00,38.2,37.9,29.99,ESE,107,0.0,4.0,99,0.00,,-RA,0.07,VWS V14.01,2013-02-23 16:55:00,
2013-02-23 12:00:00,38.4,38.1,29.98,East,101,1.0,3.0,99,0.00,,-RA,0.07,VWS V14.01,2013-02-23 17:00:00,
2013-02-23 12:05:00,38.6,38.3,29.98,ESE,107,0.0,3.0,99,0.00,,,0.07,VWS V14.01,2013-02-23 17:05:00,
2013-02-23 12:10:00,38.6,38.3,29.99,East,88,0.0,1.0,99,0.00,,,0.07,VWS V14.01,2013-02-23 17:10:00,
2013-02-23 12:15:00,38.8,38.5,29.98,NW,309,0.0,1.0,99,0.00,,,0.07,VWS V14.01,2013-02-23 17:15:00,
2013-02-23 12:20:00,39.2,38.9,29.98,NNW,339,0.0,1.0,99,0.00,,,0.07,VWS V14.01,2013-02-23 17:20:00,
2013-02-23 12:25:00,39.5,39.2,29.98,North,349,0.0,1.0,99,0.00,,,0.07,VWS V14.01,2013-02-23 17:25:00,
2013-02-23 12:30:00,38.8,38.3,29.98,NW,311,0.0,2.0,98,0.00,,,0.07,VWS V14.01,2013-02-23 17:30:00,
2013-02-23 12:35:00,38.5,38.0,29.98,NNW,346,1.0,1.0,98,0.00,,,0.07,VWS V14.01,2013-02-23 17:35:00,
2013-02-23 12:40:00,38.4,37.9,29.98,ENE,74,0.0,2.0,98,0.00,,,0.07,VWS V14.01,2013-02-23 17:40:00,
2013-02-23 12:45:00,38.8,38.5,29.97,ENE,65,0.0,0.0,99,0.01,,,0.08,VWS V14.01,2013-02-23 17:45:00,
2013-02-23 12:50:00,39.1,38.8,29.97,WNW,293,0.0,2.0,99,0.01,,,0.08,VWS V14.01,2013-02-23 17:50:00,
2013-02-23 12:55:00,38.9,38.6,29.97,NW,305,0.0,2.0,99,0.01,,,0.08,VWS V14.01,2013-02-23 17:55:00,
2013-02-23 13:00:00,38.7,38.2,29.97,NNW,340,0.0,1.0,98,0.01,,,0.08,VWS V14.01,2013-02-23 18:00:00,
2013-02-23 13:05:00,38.7,38.2,29.97,North,6,0.0,0.0,98,0.01,,-RA,0.08,VWS V14.01,2013-02-23 18:05:00,
2013-02-23 13:10:00,39.1,38.8,29.96,NNE,25,0.0,0.0,99,0.01,,-RA,0.08,VWS V14.01,2013-02-23 18:10:00,
2013-02-23 13:15:00,39.3,39.0,29.96,NW,325,0.0,0.0,99,0.01,,-RA,0.08,VWS V14.01,2013-02-23 18:15:00,
2013-02-23 13:20:00,39.2,38.9,29.96,NNW,348,0.0,1.0,99,0.01,,-RA,0.08,VWS V14.01,2013-02-23 18:20:00,
2013-02-23 13:25:00,39.5,39.2,29.95,NW,323,0.0,1.0,99,0.01,,-RA,0.08,VWS V14.01,2013-02-23 18:25:00,
2013-02-23 13:30:00,39.5,39.2,29.95,WNW,294,0.0,0.0,99,0.01,,-RA,0.08,VWS V14.01,2013-02-23 18:30:00,
2013-02-23 13:35:00,39.8,39.5,29.95,East,98,0.0,0.0,99,0.01,,-RA,0.08,VWS V14.01,2013-02-23 18:35:00,
2013-02-23 13:40:00,40.1,39.8,29.95,NW,308,0.0,0.0,99,0.01,,-RA,0.08,VWS V14.01,2013-02-23 18:40:00,
2013-02-23 13:45:00,40.2,39.9,29.95,East,89,0.0,2.0,99,0.00,,-RA,0.08,VWS V14.01,2013-02-23 18:45:00,
2013-02-23 13:50:00,40.0,39.7,29.94,East,94,2.0,2.0,99,0.00,,-RA,0.08,VWS V14.01,2013-02-23 18:50:00,
2013-02-23 13:55:00,40.0,39.7,29.94,ESE,106,0.0,1.0,99,0.00,,-RA,0.08,VWS V14.01,2013-02-23 18:55:00,
2013-02-23 14:00:00,40.4,40.1,29.94,ESE,115,0.0,1.0,99,0.00,,-RA,0.08,VWS V14.01,2013-02-23 19:00:00,
2013-02-23 14:06:00,40.6,40.3,29.93,ESE,105,1.0,4.0,99,0.00,,-RA,0.08,VWS V14.01,2013-02-23 19:06:00,
2013-02-23 14:11:00,41.0,40.7,29.94,East,100,2.0,2.0,99,0.00,,-RA,0.08,VWS V14.01,2013-02-23 19:11:00,
2013-02-23 14:16:00,40.5,40.0,29.93,North,355,0.0,3.0,98,0.00,,-RA,0.08,VWS V14.01,2013-02-23 19:16:00,
2013-02-23 14:21:00,40.7,40.4,29.93,East,88,0.0,1.0,99,0.00,,-RA,0.08,VWS V14.01,2013-02-23 19:21:00,
2013-02-23 14:26:00,41.0,40.7,29.93,East,101,0.0,1.0,99,0.00,,-RA,0.08,VWS V14.01,2013-02-23 19:26:00,
2013-02-23 14:31:00,41.4,41.1,29.92,WSW,248,0.0,0.0,99,0.00,,-RA,0.08,VWS V14.01,2013-02-23 19:31:00,
2013-02-23 14:36:00,41.4,40.9,29.92,NNE,26,0.0,4.0,98,0.00,,,0.08,VWS V14.01,2013-02-23 19:36:00,
2013-02-23 14:41:00,41.6,41.1,29.92,ESE,103,4.0,4.0,98,0.00,,,0.08,VWS V14.01,2013-02-23 19:41:00,
2013-02-23 14:46:00,41.7,41.2,29.91,ENE,58,3.0,3.0,98,0.00,,,0.08,VWS V14.01,2013-02-23 19:46:00,
2013-02-23 14:51:00,42.2,41.9,29.91,ENE,75,0.0,0.0,99,0.00,,,0.08,VWS V14.01,2013-02-23 19:51:00,
2013-02-23 14:56:00,42.4,42.1,29.91,East,98,3.0,5.0,99,0.00,,,0.08,VWS V14.01,2013-02-23 19:56:00,
2013-02-23 15:01:00,42.4,41.9,29.91,ESE,104,1.0,1.0,98,0.00,,,0.08,VWS V14.01,2013-02-23 20:01:00,
2013-02-23 15:06:00,42.5,42.0,29.90,ESE,110,0.0,1.0,98,0.00,,,0.08,VWS V14.01,2013-02-23 20:06:00,
2013-02-23 15:11:00,42.7,42.2,29.90,NNE,18,0.0,1.0,98,0.00,,,0.08,VWS V14.01,2013-02-23 20:11:00,
2013-02-23 15:16:00,42.7,42.2,29.90,ENE,63,0.0,1.0,98,0.00,,,0.08,VWS V14.01,2013-02-23 20:16:00,
2013-02-23 15:21:00,42.8,42.3,29.90,ESE,106,0.0,0.0,98,0.00,,,0.08,VWS V14.01,2013-02-23 20:21:00,
2013-02-23 15:26:00,42.8,42.0,29.90,ENE,72,0.0,0.0,97,0.00,,,0.08,VWS V14.01,2013-02-23 20:26:00,
2013-02-23 15:31:00,42.7,41.9,29.90,NNW,340,0.0,1.0,97,0.00,,,0.08,VWS V14.01,2013-02-23 20:31:00,
2013-02-23 15:36:00,42.5,41.7,29.89,NNW,335,0.0,1.0,97,0.00,,,0.08,VWS V14.01,2013-02-23 20:36:00,
2013-02-23 15:41:00,42.0,41.2,29.89,NW,321,0.0,2.0,97,0.00,,,0.08,VWS V14.01,2013-02-23 20:41:00,
2013-02-23 15:46:00,41.8,41.0,29.89,NNW,335,0.0,1.0,97,0.00,,,0.08,VWS V14.01,2013-02-23 20:46:00,
2013-02-23 15:51:00,41.7,40.9,29.89,NNW,341,0.0,2.0,97,0.00,,,0.08,VWS V14.01,2013-02-23 20:51:00,
2013-02-23 15:56:00,41.7,40.9,29.89,NNW,337,0.0,1.0,97,0.00,,,0.08,VWS V14.01,2013-02-23 20:56:00,
2013-02-23 16:01:00,41.8,41.3,29.89,NW,312,0.0,1.0,98,0.00,,,0.08,VWS V14.01,2013-02-23 21:01:00,
2013-02-23 16:06:00,41.7,41.2,29.89,ENE,72,1.0,2.0,98,0.00,,,0.08,VWS V14.01,2013-02-23 21:06:00,
2013-02-23 16:11:00,41.7,41.2,29.89,NNE,26,2.0,2.0,98,0.00,,,0.08,VWS V14.01,2013-02-23 21:11:00,
2013-02-23 16:16:00,41.4,40.6,29.89,East,96,0.0,2.0,97,0.00,,,0.08,VWS V14.01,2013-02-23 21:16:00,
2013-02-23 16:21:00,41.3,40.8,29.88,East,94,0.0,2.0,98,0.00,,,0.08,VWS V14.01,2013-02-23 21:21:00,
2013-02-23 16:26:00,41.2,40.7,29.88,North,10,0.0,0.0,98,0.00,,,0.08,VWS V14.01,2013-02-23 21:26:00,
2013-02-23 16:32:00,41.2,40.7,29.88,WNW,302,0.0,1.0,98,0.00,,,0.08,VWS V14.01,2013-02-23 21:32:00,
2013-02-23 16:37:00,41.2,40.7,29.87,NE,56,0.0,0.0,98,0.00,,,0.08,VWS V14.01,2013-02-23 21:37:00,
2013-02-23 16:42:00,41.1,40.6,29.87,NE,51,0.0,1.0,98,0.00,,,0.08,VWS V14.01,2013-02-23 21:42:00,
2013-02-23 16:47:00,41.1,40.6,29.87,ENE,58,0.0,3.0,98,0.00,,,0.08,VWS V14.01,2013-02-23 21:47:00,
2013-02-23 16:52:00,41.0,40.5,29.87,ENE,72,0.0,2.0,98,0.00,,,0.08,VWS V14.01,2013-02-23 21:52:00,
2013-02-23 16:57:00,40.9,40.4,29.86,WNW,294,0.0,1.0,98,0.00,,,0.08,VWS V14.01,2013-02-23 21:57:00,
2013-02-23 17:02:00,40.8,40.3,29.86,WNW,299,0.0,1.0,98,0.00,,,0.08,VWS V14.01,2013-02-23 22:02:00,
2013-02-23 17:07:00,40.7,40.4,29.86,West,273,0.0,1.0,99,0.01,,,0.09,VWS V14.01,2013-02-23 22:07:00,
2013-02-23 17:12:00,40.7,40.4,29.86,NNE,21,0.0,1.0,99,0.01,,,0.09,VWS V14.01,2013-02-23 22:12:00,
2013-02-23 17:17:00,40.7,40.4,29.86,NNE,14,0.0,0.0,99,0.01,,,0.09,VWS V14.01,2013-02-23 22:17:00,
2013-02-23 17:22:00,40.6,40.3,29.86,WNW,284,0.0,1.0,99,0.01,,,0.09,VWS V14.01,2013-02-23 22:22:00,
2013-02-23 17:27:00,40.5,40.2,29.86,NNE,21,0.0,1.0,99,0.01,,,0.09,VWS V14.01,2013-02-23 22:27:00,
2013-02-23 17:32:00,40.4,40.1,29.86,East,94,0.0,1.0,99,0.01,,,0.09,VWS V14.01,2013-02-23 22:32:00,
2013-02-23 17:37:00,40.3,40.0,29.86,ESE,103,0.0,1.0,99,0.01,,,0.09,VWS V14.01,2013-02-23 22:37:00,
2013-02-23 17:43:00,40.3,40.0,29.87,East,91,0.0,0.0,99,0.01,,,0.09,VWS V14.01,2013-02-23 22:43:00,
2013-02-23 17:48:00,40.2,39.9,29.87,NW,323,0.0,0.0,99,0.01,,,0.09,VWS V14.01,2013-02-23 22:48:00,
2013-02-23 17:53:00,40.2,39.9,29.87,NW,312,0.0,0.0,99,0.01,,,0.09,VWS V14.01,2013-02-23 22:53:00,
2013-02-23 17:58:00,40.0,39.7,29.88,NW,308,0.0,0.0,99,0.01,,,0.09,VWS V14.01,2013-02-23 22:58:00,
2013-02-23 18:03:00,39.7,39.4,29.87,NW,308,0.0,0.0,99,0.01,,,0.09,VWS V14.01,2013-02-23 23:03:00,
2013-02-23 18:08:00,39.7,39.4,29.87,NW,325,0.0,0.0,99,0.00,,,0.09,VWS V14.01,2013-02-23 23:08:00,
2013-02-23 18:13:00,39.7,39.4,29.87,North,359,0.0,1.0,99,0.00,,,0.09,VWS V14.01,2013-02-23 23:13:00,
2013-02-23 18:18:00,39.7,39.4,29.87,WNW,302,0.0,1.0,99,0.00,,,0.09,VWS V14.01,2013-02-23 23:18:00,
2013-02-23 18:23:00,39.6,39.3,29.87,NNW,344,0.0,1.0,99,0.00,,,0.09,VWS V14.01,2013-02-23 23:23:00,
2013-02-23 18:28:00,39.6,39.3,29.87,NNW,345,0.0,1.0,99,0.00,,,0.09,VWS V14.01,2013-02-23 23:28:00,
2013-02-23 18:33:00,39.5,39.2,29.87,NNW,345,0.0,1.0,99,0.00,,,0.09,VWS V14.01,2013-02-23 23:33:00,
2013-02-23 18:38:00,39.5,39.2,29.86,NNW,347,0.0,1.0,99,0.01,,,0.10,VWS V14.01,2013-02-23 23:38:00,
2013-02-23 18:43:00,39.5,39.2,29.87,NNW,341,0.0,1.0,99,0.01,,,0.10,VWS V14.01,2013-02-23 23:43:00,
2013-02-23 18:49:00,39.5,39.2,29.87,WNW,301,1.0,1.0,99,0.01,,,0.10,VWS V14.01,2013-02-23 23:49:00,
2013-02-23 18:54:00,39.4,39.1,29.87,NW,321,0.0,0.0,99,0.01,,,0.10,VWS V14.01,2013-02-23 23:54:00,
2013-02-23 18:59:00,39.3,39.0,29.87,NW,321,0.0,0.0,99,0.01,,,0.10,VWS V14.01,2013-02-23 23:59:00,
2013-02-23 19:04:00,39.3,39.0,29.87,NNW,337,1.0,2.0,99,0.01,,,0.10,VWS V14.01,2013-02-24 00:04:00,
2013-02-23 19:09:00,39.3,39.0,29.87,North,352,0.0,1.0,99,0.01,,,0.10,VWS V14.01,2013-02-24 00:09:00,
2013-02-23 19:14:00,39.3,39.3,29.88,NW,316,0.0,1.0,100,0.01,,,0.10,VWS V14.01,2013-02-24 00:14:00,
2013-02-23 19:19:00,39.2,39.2,29.88,NW,312,0.0,0.0,100,0.01,,,0.10,VWS V14.01,2013-02-24 00:19:00,
2013-02-23 19:24:00,39.1,39.1,29.88,NW,312,0.0,0.0,100,0.01,,,0.10,VWS V14.01,2013-02-24 00:24:00,
2013-02-23 19:29:00,39.0,39.0,29.87,WNW,288,0.0,1.0,100,0.01,,,0.10,VWS V14.01,2013-02-24 00:29:00,
2013-02-23 19:34:00,39.0,39.0,29.87,WNW,288,0.0,0.0,100,0.01,,,0.10,VWS V14.01,2013-02-24 00:34:00,
2013-02-23 19:39:00,38.9,38.9,29.86,WNW,288,0.0,0.0,100,0.01,,,0.10,VWS V14.01,2013-02-24 00:39:00,
2013-02-23 19:44:00,38.9,38.9,29.86,WNW,288,0.0,1.0,100,0.00,,,0.10,VWS V14.01,2013-02-24 00:44:00,
2013-02-23 19:49:00,38.9,38.9,29.87,West,268,0.0,1.0,100,0.00,,,0.10,VWS V14.01,2013-02-24 00:49:00,
2013-02-23 19:54:00,38.8,38.8,29.87,WNW,300,0.0,1.0,100,0.00,,,0.10,VWS V14.01,2013-02-24 00:54:00,
2013-02-23 19:59:00,38.7,38.7,29.87,WNW,300,0.0,2.0,100,0.00,,,0.10,VWS V14.01,2013-02-24 00:59:00,
2013-02-23 20:04:00,38.7,38.7,29.87,NW,311,0.0,1.0,100,0.00,,,0.10,VWS V14.01,2013-02-24 01:04:00,
2013-02-23 20:10:00,38.8,38.8,29.86,North,359,0.0,2.0,100,0.00,,,0.10,VWS V14.01,2013-02-24 01:10:00,
2013-02-23 20:15:00,38.7,38.7,29.85,North,360,0.0,0.0,100,0.00,,,0.10,VWS V14.01,2013-02-24 01:15:00,
2013-02-23 20:20:00,38.8,38.8,29.85,ENE,68,0.0,1.0,100,0.00,,,0.10,VWS V14.01,2013-02-24 01:20:00,
2013-02-23 20:25:00,38.8,38.8,29.85,East,82,0.0,1.0,100,0.00,,,0.10,VWS V14.01,2013-02-24 01:25:00,
2013-02-23 20:30:00,38.8,38.8,29.84,North,355,0.0,1.0,100,0.00,,,0.10,VWS V14.01,2013-02-24 01:30:00,
2013-02-23 20:35:00,38.8,38.8,29.84,West,266,0.0,1.0,100,0.00,,,0.10,VWS V14.01,2013-02-24 01:35:00,
2013-02-23 20:40:00,38.9,38.9,29.84,NE,53,0.0,1.0,100,0.00,,,0.10,VWS V14.01,2013-02-24 01:40:00,
2013-02-23 20:45:00,38.9,38.9,29.84,WNW,291,0.0,3.0,100,0.00,,,0.10,VWS V14.01,2013-02-24 01:45:00,
2013-02-23 20:50:00,38.9,38.9,29.83,NW,326,0.0,4.0,100,0.00,,,0.10,VWS V14.01,2013-02-24 01:50:00,
2013-02-23 20:55:00,38.9,38.9,29.83,East,86,2.0,6.0,100,0.00,,,0.10,VWS V14.01,2013-02-24 01:55:00,
2013-02-23 21:00:00,39.0,39.0,29.83,West,269,1.0,7.0,100,0.00,,,0.10,VWS V14.01,2013-02-24 02:00:00,
2013-02-23 21:05:00,39.0,39.0,29.83,West,273,2.0,6.0,100,0.00,,,0.10,VWS V14.01,2013-02-24 02:05:00,
2013-02-23 21:10:00,39.0,39.0,29.83,West,278,0.0,5.0,100,0.00,,,0.10,VWS V14.01,2013-02-24 02:10:00,
2013-02-23 21:15:00,38.9,38.9,29.83,NNE,28,0.0,2.0,100,0.00,,,0.10,VWS V14.01,2013-02-24 02:15:00,
2013-02-23 21:20:00,39.0,39.0,29.84,NW,321,0.0,1.0,100,0.00,,,0.10,VWS V14.01,2013-02-24 02:20:00,
2013-02-23 21:25:00,39.0,39.0,29.84,NW,319,0.0,0.0,100,0.00,,,0.10,VWS V14.01,2013-02-24 02:25:00,
2013-02-23 21:30:00,39.0,39.0,29.83,NNE,21,0.0,3.0,100,0.00,,,0.10,VWS V14.01,2013-02-24 02:30:00,
2013-02-23 21:35:00,39.0,39.0,29.83,NW,316,0.0,1.0,100,0.00,,,0.10,VWS V14.01,2013-02-24 02:35:00,
2013-02-23 21:40:00,38.9,38.9,29.84,NW,305,0.0,3.0,100,0.00,,,0.10,VWS V14.01,2013-02-24 02:40:00,
2013-02-23 21:45:00,38.9,38.9,29.83,WSW,241,0.0,1.0,100,0.00,,,0.10,VWS V14.01,2013-02-24 02:45:00,
2013-02-23 21:50:00,38.8,38.8,29.83,WNW,284,0.0,3.0,100,0.00,,,0.10,VWS V14.01,2013-02-24 02:50:00,
2013-02-23 21:55:00,38.8,38.8,29.84,ENE,69,1.0,2.0,100,0.00,,,0.10,VWS V14.01,2013-02-24 02:55:00,
2013-02-23 22:00:00,38.7,38.7,29.84,WNW,296,0.0,3.0,100,0.00,,,0.10,VWS V14.01,2013-02-24 03:00:00,
2013-02-23 22:05:00,38.7,38.7,29.84,ENE,74,0.0,1.0,100,0.00,,,0.10,VWS V14.01,2013-02-24 03:05:00,
2013-02-23 22:10:00,38.7,38.7,29.84,NNE,30,0.0,3.0,100,0.00,,,0.10,VWS V14.01,2013-02-24 03:10:00,
2013-02-23 22:15:00,38.6,38.6,29.83,NNE,23,0.0,2.0,100,0.00,,,0.10,VWS V14.01,2013-02-24 03:15:00,
2013-02-23 22:20:00,38.6,38.6,29.83,NNE,13,0.0,3.0,100,0.00,,,0.10,VWS V14.01,2013-02-24 03:20:00,
2013-02-23 22:25:00,38.6,38.6,29.83,NNE,13,0.0,1.0,100,0.00,,,0.10,VWS V14.01,2013-02-24 03:25:00,
2013-02-23 22:30:00,38.6,38.6,29.83,ENE,78,0.0,2.0,100,0.00,,,0.10,VWS V14.01,2013-02-24 03:30:00,
2013-02-23 22:35:00,38.6,38.6,29.83,North,359,0.0,1.0,100,0.00,,,0.10,VWS V14.01,2013-02-24 03:35:00,
2013-02-23 22:40:00,38.6,38.6,29.83,East,97,0.0,0.0,100,0.00,,,0.10,VWS V14.01,2013-02-24 03:40:00,
2013-02-23 22:45:00,38.5,38.5,29.83,North,359,0.0,0.0,100,0.00,,,0.10,VWS V14.01,2013-02-24 03:45:00,
2013-02-23 22:50:00,38.5,38.5,29.82,NNE,26,0.0,0.0,100,0.00,,,0.10,VWS V14.01,2013-02-24 03:50:00,
2013-02-23 22:55:00,38.4,38.4,29.82,NNW,345,0.0,0.0,100,0.00,,,0.10,VWS V14.01,2013-02-24 03:55:00,
2013-02-23 23:00:00,38.4,38.4,29.82,ESE,108,0.0,0.0,100,0.00,,,0.10,VWS V14.01,2013-02-24 04:00:00,
2013-02-23 23:05:00,38.4,38.4,29.82,NNE,23,0.0,1.0,100,0.00,,,0.10,VWS V14.01,2013-02-24 04:05:00,
2013-02-23 23:10:00,38.4,38.4,29.82,NW,314,0.0,1.0,100,0.00,,,0.10,VWS V14.01,2013-02-24 04:10:00,
2013-02-23 23:15:00,38.3,38.3,29.82,NNW,344,0.0,0.0,100,0.00,,,0.10,VWS V14.01,2013-02-24 04:15:00,
2013-02-23 23:20:00,38.2,38.2,29.82,NE,34,0.0,0.0,100,0.00,,,0.10,VWS V14.01,2013-02-24 04:20:00,
2013-02-23 23:25:00,38.2,38.2,29.82,ENE,75,0.0,0.0,100,0.00,,,0.10,VWS V14.01,2013-02-24 04:25:00,
2013-02-23 23:30:00,38.2,38.2,29.82,NW,316,0.0,0.0,100,0.00,,,0.10,VWS V14.01,2013-02-24 04:30:00,
2013-02-23 23:35:00,38.2,38.2,29.82,North,350,0.0,0.0,100,0.00,,,0.10,VWS V14.01,2013-02-24 04:35:00,
2013-02-23 23:40:00,38.1,38.1,29.82,NW,314,0.0,1.0,100,0.00,,,0.10,VWS V14.01,2013-02-24 04:40:00,
2013-02-23 23:45:00,38.1,38.1,29.82,SW,224,0.0,2.0,100,0.00,,,0.10,VWS V14.01,2013-02-24 04:45:00,
2013-02-23 23:50:00,38.1,38.1,29.81,ENE,72,2.0,4.0,100,0.00,,,0.10,VWS V14.01,2013-02-24 04:50:00,
2013-02-23 23:55:00,38.1,38.1,29.81,NE,47,1.0,1.0,100,0.00,,,0.10,VWS V14.01,2013-02-24 04:55:00,